FW2485 Weather Reports


time (UTC)temp
C
wind
direction
speed
KPH
gust
KPH
rain 1hr
cm
rain 24hr
cm
rain mn
cm
humidity
%
barometer
mb
20191014003550 11 87 1.6 3.2 0.00 0.00 0.00 89 1016.6
20191014003136 11 115 0.0 3.2 0.00 0.00 0.00 88 1015.7
20191014003046 11 115 1.6 3.2 0.00 0.00 0.00 88 1016.6
20191014002543 11 117 1.6 3.2 0.00 0.00 0.00 88 1016.6
20191014002042 12 149 0.0 3.2 0.00 0.00 0.00 88 1016.8
20191014001603 11 109 0.0 1.6 0.00 0.00 0.00 88 1016.0
20191014001541 12 109 0.0 1.6 0.00 0.00 0.00 88 1016.7
20191014001039 12 109 0.0 1.6 0.00 0.00 0.00 88 1016.7
20191014000540 12 109 0.0 3.2 0.00 0.00 0.00 87 1016.8
20191014000143 12 109 0.0 3.2 0.00 0.00 0.00 87 1016.0
20191014000040 12 109 1.6 3.2 0.00 0.00 0.00 87 1016.7
20191013235540 12 133 1.6 3.2 0.00 0.00 0.00 87 1016.8
20191013235040 12 144 1.6 3.2 0.00 0.00 0.00 87 1016.8
20191013234747 12 136 0.0 3.2 0.00 0.00 0.00 87 1015.9
20191013234543 12 136 1.6 3.2 0.00 0.00 0.00 87 1016.7
20191013234033 12 172 1.6 3.2 0.00 0.00 0.00 87 1016.6
20191013233535 12 209 0.0 3.2 0.00 0.00 0.00 87 1016.6
20191013233155 12 153 0.0 4.8 0.00 0.00 0.00 87 1015.8
20191013233032 12 153 0.0 4.8 0.00 0.00 0.00 87 1016.6
20191013232534 12 153 1.6 4.8 0.00 0.00 0.00 87 1016.6
20191013232032 12 136 0.0 3.2 0.00 0.00 0.00 87 1016.5
20191013231618 12 143 0.0 3.2 0.00 0.00 0.00 87 1015.7
20191013231535 12 143 0.0 3.2 0.00 0.00 0.00 87 1016.5
20191013231031 12 208 0.0 3.2 0.00 0.00 0.00 86 1016.5
20191013230529 12 208 0.0 4.8 0.00 0.00 0.00 86 1016.4
20191013230130 12 142 0.0 4.8 0.00 0.00 0.00 86 1015.7
20191013230029 12 142 0.0 4.8 0.00 0.00 0.00 86 1016.5
20191013225529 12 215 0.0 3.2 0.00 0.00 0.00 86 1016.4
20191013225029 12 123 0.0 3.2 0.00 0.00 0.00 85 1016.4
20191013224644 12 227 0.0 1.6 0.00 0.00 0.00 85 1015.7
20191013224529 12 227 0.0 1.6 0.00 0.00 0.00 85 1016.5
20191013224029 13 227 0.0 3.2 0.00 0.00 0.00 85 1016.4
20191013223529 13 120 1.6 3.2 0.00 0.00 0.00 85 1016.5
20191013223126 12 111 0.0 3.2 0.00 0.00 0.00 85 1015.8
20191013223029 13 111 0.0 3.2 0.00 0.00 0.00 85 1016.7
20191013222529 13 138 0.0 3.2 0.00 0.00 0.00 86 1016.5
20191013222034 13 85 1.6 4.8 0.00 0.00 0.00 86 1016.5
20191013221645 12 156 0.0 4.8 0.00 0.00 0.00 87 1015.8
20191013221530 12 113 0.0 4.8 0.00 0.00 0.00 87 1016.6
20191013221030 12 136 0.0 3.2 0.00 0.00 0.00 87 1016.6
20191013220529 13 136 0.0 1.6 0.00 0.00 0.00 87 1016.6
20191013220119 12 136 0.0 3.2 0.00 0.00 0.00 87 1015.8
20191013220031 13 136 0.0 3.2 0.00 0.00 0.00 87 1016.6
20191013215529 13 136 0.0 3.2 0.00 0.00 0.00 87 1016.6
20191013215030 13 136 0.0 3.2 0.00 0.00 0.00 87 1016.5
20191013214612 13 136 0.0 1.6 0.00 0.00 0.00 87 1015.7
20191013214530 13 136 0.0 3.2 0.00 0.00 0.00 87 1016.5
20191013214033 13 136 0.0 3.2 0.00 0.00 0.00 87 1016.6
20191013213529 13 136 0.0 3.2 0.00 0.00 0.00 87 1016.6
20191013213052 13 136 0.0 1.6 0.00 0.00 0.00 87 1015.8
20191013213031 13 136 0.0 1.6 0.00 0.00 0.00 87 1016.6
20191013212529 13 136 0.0 1.6 0.00 0.00 0.00 87 1016.5
20191013212031 13 136 0.0 3.2 0.00 0.00 0.00 87 1016.5
20191013211550 13 136 0.0 3.2 0.00 0.00 0.00 87 1015.6
20191013211531 13 136 0.0 3.2 0.00 0.00 0.00 87 1016.5
20191013211030 13 136 0.0 3.2 0.00 0.00 0.00 87 1016.3
20191013210529 13 136 0.0 3.2 0.00 0.00 0.00 86 1016.3
20191013210047 13 135 0.0 4.8 0.00 0.00 0.00 86 1015.4
20191013210029 13 135 0.0 4.8 0.00 0.00 0.00 86 1016.2
20191013205531 14 187 0.0 4.8 0.00 0.00 0.00 86 1016.2
20191013205030 14 150 1.6 4.8 0.00 0.00 0.00 86 1016.3
20191013204545 13 182 0.0 4.8 0.00 0.00 0.00 86 1015.3
20191013204531 14 182 1.6 4.8 0.00 0.00 0.00 86 1016.2
20191013204031 14 131 1.6 6.4 0.00 0.00 0.00 87 1016.1
20191013203529 14 96 1.6 6.4 0.00 0.00 0.00 87 1016.0
20191013203110 13 277 0.0 3.2 0.00 0.00 0.00 87 1015.0
20191013203030 14 277 0.0 3.2 0.00 0.00 0.00 87 1016.0
20191013202529 13 174 0.0 3.2 0.00 0.00 0.00 87 1016.0
20191013202032 14 113 0.0 3.2 0.00 0.00 0.00 86 1016.0
20191013201552 13 110 0.0 4.8 0.00 0.00 0.00 86 1015.0
20191013201529 14 110 0.0 4.8 0.00 0.00 0.00 86 1016.1
20191013201029 14 110 0.0 4.8 0.00 0.00 0.00 86 1016.1
20191013200529 14 110 0.0 3.2 0.00 0.00 0.00 87 1016.0
20191013200117 13 111 0.0 3.2 0.00 0.00 0.00 87 1014.8
20191013200029 14 111 0.0 3.2 0.00 0.00 0.00 87 1016.0
20191013195529 14 111 0.0 3.2 0.00 0.00 0.00 87 1015.9
20191013195026 14 107 0.0 3.2 0.00 0.00 0.00 87 1015.9
20191013194611 13 107 0.0 3.2 0.00 0.00 0.00 87 1014.8
20191013194528 14 107 0.0 3.2 0.00 0.00 0.00 87 1015.9
20191013194027 14 107 0.0 1.6 0.00 0.00 0.00 87 1015.9
20191013193522 14 107 0.0 1.6 0.00 0.00 0.00 87 1016.0
20191013193121 13 107 0.0 1.6 0.00 0.00 0.00 88 1015.0
20191013193027 14 107 0.0 1.6 0.00 0.00 0.00 88 1016.0
20191013192524 14 107 1.6 4.8 0.00 0.00 0.00 87 1015.9
20191013192020 14 107 1.6 4.8 0.00 0.00 0.00 87 1015.9
20191013191716 14 107 1.6 4.8 0.00 0.00 0.00 88 1014.8
20191013191520 14 107 0.0 4.8 0.00 0.00 0.00 88 1015.8
20191013191019 14 107 0.0 1.6 0.00 0.00 0.00 88 1015.9
20191013190513 14 107 0.0 1.6 0.00 0.00 0.00 88 1015.9
20191013190051 13 107 0.0 1.6 0.00 0.00 0.00 88 1014.8
20191013190014 14 107 0.0 1.6 0.00 0.00 0.00 88 1015.9
20191013185515 14 107 0.0 1.6 0.00 0.00 0.00 88 1015.9
20191013185014 14 107 0.0 0.0 0.00 0.00 0.00 88 1015.8
20191013184537 13 107 0.0 0.0 0.00 0.00 0.00 87 1014.7
20191013184515 14 107 0.0 0.0 0.00 0.00 0.00 87 1015.7
20191013184012 14 107 0.0 0.0 0.00 0.00 0.00 86 1015.7
20191013183506 14 107 0.0 0.0 0.00 0.00 0.00 86 1015.7
20191013183119 14 107 0.0 0.0 0.00 0.00 0.00 85 1014.6
20191013183005 14 107 0.0 0.0 0.00 0.00 0.00 85 1015.7
20191013182505 15 107 0.0 0.0 0.00 0.00 0.00 86 1015.7
20191013182008 15 107 0.0 0.0 0.00 0.00 0.00 85 1015.7
20191013181540 15 107 0.0 0.0 0.00 0.00 0.00 85 1014.5
20191013181503 15 107 0.0 0.0 0.00 0.00 0.00 85 1015.7
20191013181006 15 107 0.0 0.0 0.00 0.00 0.00 84 1015.7
20191013180501 15 107 0.0 1.6 0.00 0.00 0.00 84 1015.7
20191013180037 15 107 0.0 1.6 0.00 0.00 0.00 83 1014.6
20191013180003 15 107 0.0 1.6 0.00 0.00 0.00 83 1015.8
20191013175501 16 107 0.0 0.0 0.00 0.00 0.00 81 1015.7
20191013175002 16 107 0.0 1.6 0.00 0.00 0.00 81 1015.8
20191013174534 16 107 0.0 1.6 0.00 0.00 0.00 81 1014.7
20191013174501 16 107 0.0 1.6 0.00 0.00 0.00 81 1015.8
20191013173958 16 107 0.0 1.6 0.00 0.00 0.00 82 1015.9
20191013173459 16 107 0.0 0.0 0.00 0.00 0.00 82 1015.8
20191013173033 16 107 0.0 0.0 0.00 0.00 0.00 81 1014.6
20191013172957 16 107 0.0 1.6 0.00 0.00 0.00 81 1015.8
20191013172457 16 107 0.0 1.6 0.00 0.00 0.00 79 1015.8
20191013171959 17 107 0.0 0.0 0.00 0.00 0.00 77 1015.9
20191013171553 17 107 0.0 0.0 0.00 0.00 0.00 76 1014.7
20191013171456 17 107 0.0 1.6 0.00 0.00 0.00 77 1015.9
20191013170955 17 107 0.0 1.6 0.00 0.00 0.00 77 1015.9
20191013170451 17 107 0.0 1.6 0.00 0.00 0.00 77 1015.8
20191013170026 17 107 0.0 1.6 0.00 0.00 0.00 76 1014.5
20191013165952 17 107 0.0 1.6 0.00 0.00 0.00 76 1015.7
20191013165449 17 107 0.0 1.6 0.00 0.00 0.00 75 1015.6
20191013164951 17 107 0.0 3.2 0.00 0.00 0.00 74 1015.4
20191013164601 17 107 0.0 3.2 0.00 0.00 0.00 74 1014.2
20191013164449 17 107 0.0 3.2 0.00 0.00 0.00 74 1015.3
20191013163950 18 107 0.0 1.6 0.00 0.00 0.00 73 1015.5
20191013163451 18 107 0.0 0.0 0.00 0.00 0.00 73 1015.5
20191013163051 17 107 0.0 0.0 0.00 0.00 0.00 73 1014.4
20191013162950 18 107 0.0 0.0 0.00 0.00 0.00 73 1015.5
20191013162449 18 105 0.0 0.0 0.00 0.00 0.00 73 1015.3
20191013161950 18 105 0.0 1.6 0.00 0.00 0.00 72 1015.2
20191013161531 18 105 0.0 1.6 0.00 0.00 0.00 71 1014.1
20191013161447 18 105 0.0 1.6 0.00 0.00 0.00 71 1015.2
20191013160950 18 105 0.0 0.0 0.00 0.00 0.00 70 1015.2
20191013160443 19 105 0.0 1.6 0.00 0.00 0.00 70 1015.2
20191013160049 19 105 0.0 1.6 0.00 0.00 0.00 68 1014.0
20191013155937 19 105 0.0 1.6 0.00 0.00 0.00 68 1015.2
20191013155434 19 105 0.0 1.6 0.00 0.00 0.00 67 1015.2
20191013154937 20 105 0.0 6.4 0.00 0.00 0.00 67 1015.2
20191013154523 20 105 0.0 3.2 0.00 0.00 0.00 65 1014.1
20191013154438 20 105 1.6 6.4 0.00 0.00 0.00 65 1015.3
20191013153934 20 105 1.6 6.4 0.00 0.00 0.00 66 1015.2
20191013153435 20 105 1.6 6.4 0.00 0.00 0.00 63 1015.2
20191013153018 20 103 0.0 9.7 0.00 0.00 0.00 64 1014.1
20191013152935 20 103 1.6 9.7 0.00 0.00 0.00 63 1015.2
20191013152432 21 111 1.6 9.7 0.00 0.00 0.00 62 1015.3
20191013151930 21 95 1.6 4.8 0.00 0.00 0.00 63 1015.4
20191013151529 21 96 0.0 4.8 0.00 0.00 0.00 63 1014.2
20191013151431 21 96 1.6 4.8 0.00 0.00 0.00 63 1015.3
20191013150929 21 112 1.6 4.8 0.00 0.00 0.00 62 1015.4
20191013150429 21 97 1.6 4.8 0.00 0.00 0.00 63 1015.4
20191013150027 20 133 0.0 4.8 0.00 0.00 0.00 65 1014.3
20191013145931 21 126 0.0 4.8 0.00 0.00 0.00 65 1015.3
20191013145426 20 168 0.0 3.2 0.00 0.00 0.00 66 1015.3
20191013144927 20 99 0.0 3.2 0.00 0.00 0.00 66 1015.5
20191013144510 20 99 0.0 4.8 0.00 0.00 0.00 64 1014.3
20191013144425 20 99 1.6 4.8 0.00 0.00 0.00 65 1015.5
20191013143925 21 85 1.6 4.8 0.00 0.00 0.00 63 1015.5
20191013143425 21 85 1.6 4.8 0.00 0.00 0.00 63 1015.5
20191013143012 21 85 1.6 4.8 0.00 0.00 0.00 62 1014.4
20191013142928 21 85 1.6 4.8 0.00 0.00 0.00 62 1015.5
20191013142425 21 107 1.6 6.4 0.00 0.00 0.00 63 1015.6
20191013141924 22 86 3.2 9.7 0.00 0.00 0.00 62 1015.6
20191013141544 22 82 0.0 9.7 0.00 0.00 0.00 60 1014.5
20191013141422 22 81 1.6 9.7 0.00 0.00 0.00 60 1015.6
20191013140921 21 200 1.6 4.8 0.00 0.00 0.00 61 1015.7
20191013140420 21 105 3.2 9.7 0.00 0.00 0.00 62 1015.7
20191013140034 21 79 0.0 9.7 0.00 0.00 0.00 62 1014.4
20191013135918 21 101 1.6 9.7 0.00 0.00 0.00 61 1015.7
20191013135418 21 107 1.6 4.8 0.00 0.00 0.00 59 1015.7
20191013134915 22 180 1.6 9.7 0.00 0.00 0.00 61 1015.7
20191013134508 21 171 0.0 9.7 0.00 0.00 0.00 60 1014.5
20191013134414 22 171 1.6 9.7 0.00 0.00 0.00 60 1015.6
20191013133913 22 90 0.0 3.2 0.00 0.00 0.00 60 1015.6
20191013133413 21 90 1.6 3.2 0.00 0.00 0.00 60 1015.7
20191013133006 21 90 0.0 6.4 0.00 0.00 0.00 59 1014.6
20191013132912 21 90 1.6 6.4 0.00 0.00 0.00 59 1015.7
20191013132414 21 105 1.6 6.4 0.00 0.00 0.00 61 1015.8
20191013131908 21 93 1.6 6.4 0.00 0.00 0.00 60 1015.9
20191013131504 21 144 0.0 6.4 0.00 0.00 0.00 61 1014.6
20191013131406 21 143 1.6 6.4 0.00 0.00 0.00 61 1015.9
20191013130906 21 325 1.6 3.2 0.00 0.00 0.00 62 1015.8
20191013130409 21 115 1.6 4.8 0.00 0.00 0.00 62 1015.9
20191013130008 21 115 0.0 4.8 0.00 0.00 0.00 63 1014.6
20191013125906 21 115 1.6 4.8 0.00 0.00 0.00 63 1015.9
20191013125405 21 115 1.6 6.4 0.00 0.00 0.00 61 1015.9
20191013124903 21 105 1.6 6.4 0.00 0.00 0.00 61 1016.0
20191013124403 21 226 1.6 9.7 0.00 0.00 0.00 60 1016.0
20191013123901 21 106 3.2 9.7 0.00 0.00 0.00 61 1015.9
20191013123402 21 219 3.2 11.3 0.00 0.00 0.00 61 1015.9
20191013123211 21 203 3.2 11.3 0.00 0.00 0.00 60 1014.7
20191013122903 21 229 3.2 11.3 0.00 0.00 0.00 60 1016.0
20191013122403 21 96 3.2 9.7 0.00 0.00 0.00 60 1016.2
20191013121902 21 127 3.2 9.7 0.00 0.00 0.00 59 1016.2
20191013121753 21 98 3.2 9.7 0.00 0.00 0.00 62 1014.9
20191013121404 21 246 3.2 11.3 0.00 0.00 0.00 63 1016.1
20191013120859 21 94 3.2 11.3 0.00 0.00 0.00 62 1016.2
20191013120401 21 133 3.2 11.3 0.00 0.00 0.00 63 1016.2
20191013120208 20 121 4.8 11.3 0.00 0.00 0.00 63 1014.9
20191013115904 21 97 3.2 12.9 0.00 0.00 0.00 63 1016.1
20191013115402 20 25 3.2 12.9 0.00 0.00 0.00 63 1016.3
20191013114859 20 117 3.2 9.7 0.00 0.00 0.00 63 1016.4
20191013114641 20 128 1.6 9.7 0.00 0.00 0.00 63 1015.3
20191013114408 20 134 3.2 9.7 0.00 0.00 0.00 64 1016.5
20191013113856 20 131 4.8 16.1 0.00 0.00 0.00 63 1016.6
20191013113353 20 92 6.4 16.1 0.00 0.00 0.00 63 1016.7
20191013113104 20 106 6.4 14.5 0.00 0.00 0.00 63 1015.5
20191013112853 20 108 6.4 14.5 0.00 0.00 0.00 63 1016.7
20191013112353 20 105 4.8 11.3 0.00 0.00 0.00 64 1016.7
20191013111855 20 105 3.2 11.3 0.00 0.00 0.00 63 1016.7
20191013111656 20 261 3.2 11.3 0.00 0.00 0.00 63 1015.6
20191013111353 20 115 1.6 6.4 0.00 0.00 0.00 64 1016.7
20191013110853 20 295 3.2 6.4 0.00 0.00 0.00 64 1016.7
20191013110349 20 95 3.2 9.7 0.00 0.00 0.00 65 1016.8
20191013110135 19 238 1.6 6.4 0.00 0.00 0.00 64 1015.6
20191013105845 20 163 3.2 9.7 0.00 0.00 0.00 65 1016.8
20191013105345 20 148 3.2 9.7 0.00 0.00 0.00 64 1016.8
20191013104844 19 94 3.2 11.3 0.00 0.00 0.00 64 1016.7
20191013104618 19 105 1.6 14.5 0.00 0.00 0.00 64 1015.7
20191013104347 19 79 3.2 14.5 0.00 0.00 0.00 64 1016.9
20191013103846 19 95 3.2 12.9 0.00 0.00 0.00 65 1017.0
20191013103345 19 88 3.2 9.7 0.00 0.00 0.00 66 1017.0
20191013103228 18 90 1.6 8.0 0.00 0.00 0.00 66 1015.8
20191013102841 19 100 3.2 9.7 0.00 0.00 0.00 68 1017.0
20191013102343 18 102 3.2 16.1 0.00 0.00 0.00 70 1017.1
20191013101841 18 102 3.2 16.1 0.00 0.00 0.00 68 1017.2
20191013101541 18 223 1.6 11.3 0.00 0.00 0.00 70 1016.0
20191013101340 18 96 3.2 11.3 0.00 0.00 0.00 70 1017.1
20191013100840 18 92 3.2 9.7 0.00 0.00 0.00 71 1017.1
20191013100333 17 121 3.2 9.7 0.00 0.00 0.00 71 1017.1
20191013100053 17 124 1.6 9.7 0.00 0.00 0.00 71 1016.2
20191013095833 17 182 3.2 9.7 0.00 0.00 0.00 72 1017.1
20191013095331 17 125 3.2 12.9 0.00 0.00 0.00 73 1017.2
20191013094833 17 108 3.2 12.9 0.00 0.00 0.00 70 1017.3
20191013094548 17 103 1.6 6.4 0.00 0.00 0.00 73 1016.4
20191013094332 17 107 3.2 6.4 0.00 0.00 0.00 73 1017.4
20191013093831 16 109 3.2 6.4 0.00 0.00 0.00 72 1017.4
20191013093332 16 105 3.2 6.4 0.00 0.00 0.00 72 1017.4
20191013093027 16 115 3.2 9.7 0.00 0.00 0.00 73 1016.5
20191013092829 16 98 3.2 9.7 0.00 0.00 0.00 74 1017.4
20191013092330 16 94 3.2 11.3 0.00 0.00 0.00 74 1017.4
20191013091529 15 97 3.2 9.7 0.00 0.00 0.00 77 1016.7
20191013091331 16 109 3.2 9.7 0.00 0.00 0.00 76 1017.5
20191013090829 15 85 4.8 11.3 0.00 0.00 0.00 78 1017.5
20191013090329 15 98 4.8 11.3 0.00 0.00 0.00 78 1017.6
20191013090024 15 105 3.2 11.3 0.00 0.00 0.00 78 1016.8
20191013085829 15 109 3.2 11.3 0.00 0.00 0.00 78 1017.5
20191013085329 15 103 3.2 6.4 0.00 0.00 0.00 80 1017.6
20191013084831 15 102 3.2 16.1 0.00 0.00 0.00 79 1017.8
20191013084525 14 14 1.6 16.1 0.00 0.00 0.00 80 1017.0
20191013084331 15 95 3.2 16.1 0.00 0.00 0.00 79 1017.7
20191013083831 14 109 3.2 11.3 0.00 0.00 0.00 81 1017.6
20191013083329 14 92 4.8 12.9 0.00 0.00 0.00 80 1017.7
20191013083035 13 103 4.8 12.9 0.00 0.00 0.00 80 1017.0
20191013082831 14 106 3.2 12.9 0.00 0.00 0.00 81 1017.6
20191013082331 13 101 3.2 9.7 0.00 0.00 0.00 82 1017.8
20191013081830 13 263 3.2 12.9 0.00 0.00 0.00 82 1018.0
20191013081504 13 101 0.0 12.9 0.00 0.00 0.00 84 1017.1
20191013081329 13 101 3.2 12.9 0.00 0.00 0.00 85 1018.0
20191013080831 13 94 1.6 4.8 0.00 0.00 0.00 86 1018.0
20191013080331 12 145 3.2 9.7 0.00 0.00 0.00 87 1018.1
20191013080126 12 118 1.6 9.7 0.00 0.00 0.00 87 1017.1
20191013075831 12 103 3.2 9.7 0.00 0.00 0.00 88 1018.1
20191013075328 12 96 1.6 6.4 0.00 0.00 0.00 87 1018.0
20191013074830 12 95 1.6 6.4 0.00 0.00 0.00 87 1018.0
20191013074706 12 101 1.6 6.4 0.00 0.00 0.00 88 1017.1
20191013074330 12 105 1.6 4.8 0.00 0.00 0.00 89 1017.8
20191013073827 11 161 1.6 4.8 0.00 0.00 0.00 88 1018.0
20191013073327 11 188 1.6 6.4 0.00 0.00 0.00 89 1018.0
20191013073235 11 199 0.0 6.4 0.00 0.00 0.00 89 1017.0
20191013072827 11 88 1.6 6.4 0.00 0.00 0.00 89 1017.8
20191013072327 11 74 1.6 4.8 0.00 0.00 0.00 90 1017.8
20191013071828 11 217 1.6 6.4 0.00 0.00 0.00 90 1017.5
20191013071647 11 109 0.0 6.4 0.00 0.00 0.00 90 1016.9
20191013071329 11 255 1.6 6.4 0.00 0.00 0.00 90 1017.5
20191013070823 11 154 1.6 4.8 0.00 0.00 0.00 90 1017.7
20191013070322 11 144 1.6 4.8 0.00 0.00 0.00 91 1017.5
20191013070127 10 115 0.0 4.8 0.00 0.00 0.00 91 1016.8
20191013065822 11 92 1.6 6.4 0.00 0.00 0.00 91 1017.4
20191013065317 10 94 1.6 6.4 0.00 0.00 0.00 91 1017.4
20191013064817 10 41 1.6 6.4 0.00 0.00 0.00 92 1017.3
20191013064638 10 97 1.6 6.4 0.00 0.00 0.00 92 1016.6
20191013064316 10 118 1.6 6.4 0.00 0.00 0.00 92 1017.3
20191013063817 10 81 1.6 6.4 0.00 0.00 0.00 93 1017.3
20191013063318 10 198 1.6 4.8 0.00 0.00 0.00 94 1017.4
20191013063122 10 157 0.0 4.8 0.00 0.00 0.00 94 1016.6
20191013062817 10 99 0.0 3.2 0.00 0.00 0.00 94 1017.2
20191013062319 10 84 0.0 3.2 0.00 0.00 0.00 94 1017.2
20191013061811 9 278 1.6 4.8 0.00 0.00 0.00 94 1017.3
20191013061605 9 135 0.0 4.8 0.00 0.00 0.00 94 1016.6
20191013061310 9 135 0.0 4.8 0.00 0.00 0.00 94 1017.3
20191013060811 9 138 0.0 4.8 0.00 0.00 0.00 94 1017.2
20191013060310 9 90 0.0 3.2 0.00 0.00 0.00 94 1017.1
20191013060047 8 102 0.0 3.2 0.00 0.00 0.00 94 1016.5
20191013055809 9 188 0.0 3.2 0.00 0.00 0.00 94 1017.1
20191013055307 9 159 0.0 3.2 0.00 0.00 0.00 94 1017.1
20191013054805 9 138 0.0 1.6 0.00 0.00 0.00 94 1017.0
20191013054645 8 157 0.0 1.6 0.00 0.00 0.00 94 1016.4
20191013054304 9 157 0.0 3.2 0.00 0.00 0.00 94 1017.1
20191013053805 9 157 0.0 3.2 0.00 0.00 0.00 94 1017.0
20191013053303 9 157 0.0 3.2 0.00 0.00 0.00 94 1016.9
20191013053110 8 157 0.0 3.2 0.00 0.00 0.00 94 1016.3
20191013052804 9 157 0.0 3.2 0.00 0.00 0.00 94 1017.0
20191013052306 9 169 0.0 3.2 0.00 0.00 0.00 94 1017.0
20191013051807 9 136 0.0 3.2 0.00 0.00 0.00 94 1016.9
20191013051541 8 143 0.0 3.2 0.00 0.00 0.00 94 1016.3
20191013051258 9 143 0.0 3.2 0.00 0.00 0.00 94 1017.0
20191013050758 9 190 0.0 4.8 0.00 0.00 0.00 94 1016.9
20191013050302 9 167 0.0 4.8 0.00 0.00 0.00 94 1016.9
20191013050050 8 103 0.0 3.2 0.00 0.00 0.00 94 1016.2
20191013045800 9 103 0.0 3.2 0.00 0.00 0.00 94 1016.8
20191013045258 9 103 1.6 4.8 0.00 0.00 0.00 94 1016.9
20191013044756 9 161 0.0 3.2 0.00 0.00 0.00 94 1016.9
20191013044544 9 130 0.0 4.8 0.00 0.00 0.00 94 1016.3
20191013044253 9 355 1.6 4.8 0.00 0.00 0.00 94 1016.9
20191013043753 9 123 1.6 4.8 0.00 0.00 0.00 93 1016.9
20191013043251 9 80 1.6 6.4 0.00 0.00 0.00 93 1016.8
20191013043137 9 74 0.0 6.4 0.00 0.00 0.00 93 1016.2
20191013042748 9 76 1.6 6.4 0.00 0.00 0.00 93 1016.9
20191013042246 9 98 0.0 4.8 0.00 0.00 0.00 93 1016.9
20191013041747 9 157 0.0 3.2 0.00 0.00 0.00 93 1016.8
20191013041536 9 150 0.0 3.2 0.00 0.00 0.00 93 1016.1
20191013041242 10 109 0.0 3.2 0.00 0.00 0.00 93 1016.8
20191013040739 10 134 1.6 4.8 0.00 0.00 0.00 93 1016.9
20191013040236 10 109 1.6 4.8 0.00 0.00 0.00 93 1016.8
20191013040042 9 109 0.0 4.8 0.00 0.00 0.00 93 1016.1
20191013035736 10 109 1.6 3.2 0.00 0.00 0.00 93 1016.8
20191013035236 10 187 0.0 3.2 0.00 0.00 0.00 93 1016.9
20191013034732 10 106 0.0 3.2 0.00 0.00 0.00 93 1016.9
20191013034544 10 106 0.0 3.2 0.00 0.00 0.00 93 1016.3
20191013034236 10 108 0.0 3.2 0.00 0.00 0.00 93 1017.0
20191013033732 10 106 0.0 3.2 0.00 0.00 0.00 93 1017.0
20191013033232 10 106 0.0 4.8 0.00 0.00 0.00 93 1016.9
20191013033138 10 107 0.0 4.8 0.00 0.00 0.00 93 1016.2
20191013032733 10 105 0.0 4.8 0.00 0.00 0.00 93 1016.9
20191013032229 10 126 0.0 3.2 0.00 0.00 0.00 93 1016.9
20191013031729 10 128 1.6 4.8 0.00 0.00 0.00 93 1016.7
20191013031550 10 128 0.0 4.8 0.00 0.00 0.00 93 1016.1
20191013031229 10 108 1.6 4.8 0.00 0.00 0.00 93 1016.8
20191013030729 10 112 0.0 3.2 0.00 0.00 0.00 93 1016.9
20191013030232 10 152 0.0 4.8 0.00 0.00 0.00 93 1016.8
20191013030030 10 159 0.0 4.8 0.00 0.00 0.00 93 1016.0
20191013025731 10 140 0.0 4.8 0.00 0.00 0.00 93 1016.8
20191013025228 10 92 0.0 3.2 0.00 0.00 0.00 93 1016.8
20191013024729 10 171 0.0 3.2 0.00 0.00 0.00 93 1016.7
20191013024524 10 163 0.0 3.2 0.00 0.00 0.00 93 1016.0
20191013024229 10 204 0.0 3.2 0.00 0.00 0.00 93 1016.7
20191013023731 10 211 0.0 3.2 0.00 0.00 0.00 93 1016.8
20191013023229 10 210 1.6 4.8 0.00 0.00 0.00 93 1016.8
20191013023020 10 210 0.0 4.8 0.00 0.00 0.00 93 1016.0
20191013022730 10 281 0.0 4.8 0.00 0.00 0.00 93 1016.7
20191013022234 10 161 0.0 1.6 0.00 0.00 0.00 93 1016.8
20191013021731 10 161 0.0 4.8 0.00 0.00 0.00 93 1016.7
20191013021528 10 161 0.0 4.8 0.00 0.00 0.00 93 1016.0
20191013021233 10 161 1.6 4.8 0.00 0.00 0.00 93 1016.7
20191013020730 10 138 0.0 1.6 0.00 0.00 0.00 93 1016.7
20191013020234 10 227 0.0 1.6 0.00 0.00 0.00 93 1016.6
20191013020022 10 227 0.0 1.6 0.00 0.00 0.00 92 1015.8
20191013015729 10 100 0.0 1.6 0.00 0.00 0.00 92 1016.7
20191013015230 10 100 0.0 1.6 0.00 0.00 0.00 92 1016.7
20191013014729 10 100 0.0 3.2 0.00 0.00 0.00 92 1016.8
20191013014510 10 100 0.0 3.2 0.00 0.00 0.00 92 1016.1
20191013014232 10 100 0.0 3.2 0.00 0.00 0.00 92 1016.7
20191013013735 10 100 0.0 3.2 0.00 0.00 0.00 92 1016.7
20191013013228 10 100 0.0 3.2 0.00 0.00 0.00 92 1016.8
20191013013018 10 100 0.0 3.2 0.00 0.00 0.00 92 1016.1
20191013012729 10 99 0.0 1.6 0.00 0.00 0.00 92 1016.8
20191013012232 10 148 0.0 1.6 0.00 0.00 0.00 92 1016.8
20191013011729 10 142 0.0 3.2 0.00 0.00 0.00 92 1016.7
20191013011512 10 142 0.0 3.2 0.00 0.00 0.00 92 1016.1
20191013011230 10 142 0.0 3.2 0.00 0.00 0.00 92 1016.7
20191013010729 10 146 0.0 3.2 0.00 0.00 0.00 92 1016.7
20191013010228 11 150 0.0 3.2 0.00 0.00 0.00 92 1016.8
20191013010006 10 150 0.0 3.2 0.00 0.00 0.00 92 1016.0
20191013005729 11 150 1.6 3.2 0.00 0.00 0.00 92 1016.8
20191013005232 11 150 1.6 4.8 0.00 0.00 0.00 92 1016.7
20191013004729 11 90 1.6 4.8 0.00 0.00 0.00 92 1016.8
20191013004524 11 87 1.6 4.8 0.00 0.00 0.00 92 1016.1
20191013004229 11 275 0.0 4.8 0.00 0.00 0.00 91 1016.8